Starlink 31224

operational
NORAD ID: 59029 Int'l Des: 2024-038 Owner: SPXS Country: US Constellation: starlink
LEOCIRCULAR

Über Starlink 31224

Beschreibung wird geladen...

Live-Position

3D-Globus wird geladen...

Nächste Überflüge

Höhenverlauf

Altitude vs Time

uPlot chart will show altitude changes over time

Zweizeiliger Elementsatz

1 59029U 24038G 25259.78208638 -.00001000 00000-0 -26827-4 0 9999
2 59029 43.0019 288.9537 0000790 297.8666 62.2106 15.27573286 88162
Epoch: 16. Sept. 2025 • Age: 28 hours

Aktueller Status

Höhe 481.9 km
Geschwindigkeit 7.63 km/s
Subsatellitenpunkt 13.17°N, 46.93°W
Startdatum 25. Feb. 2024
Alter 1.5 years
Typ internet

Technische Details

Klassifizierung Payload
Masse 730.00 kg
Trockenmasse 700.00 kg
Gesamtmasse 730.00 kg
Länge 0.30 m
Durchmesser 4.10 m
Spannweite 29.00 m
Form Box + pan
Hersteller SPXS
Bus-Typ Starlink V2M
Phasenstatus In Orbit
Besitzer/Staat SPXS/US

Große Konstellationen

Loading constellations...